Regional Weather Roundup
Issued by NWS

Home | Current Version | Previous Version | Text Only | Print | Product List | Glossary Off
Versions: 1 2 3 4 5 6 7 8 9 10 11 12 13 14 15 16 17 18 19 20 21 22 23 24 25 26 27 28 29 30 31 32 33 34 35 36 37 38 39 40 41 42 43 44 45 46 47 48 49 50

000
ASUS43 KTOP 221159
RWRKS

WEATHER ROUNDUP FOR KANSAS
NATIONAL WEATHER SERVICE GOODLAND KS
700 AM CDT FRI MAY 22 2015

NOTE:  "FAIR" INDICATES FEW OR NO CLOUDS BELOW 12,000 FEET WITH NO
SIGNIFICANT WEATHER AND/OR OBSTRUCTIONS TO VISIBILITY.

KSZ001>006-013>018-027>032-041>047-221300-
NORTHWEST KANSAS

CITY           SKY/WX    TMP DP  RH WIND       PRES   REMARKS
GOODLAND       RAIN      47  46  97 S16       30.10S
6HR MIN TEMP:  47; 6HR MAX TEMP:  50; 6HR PCP:  0.30;

HAYS           CLOUDY    50  43  76 S13       30.21R
HILL CITY      RAIN      50  48  93 S9        30.18R FOG
6HR MIN TEMP:  47; 6HR MAX TEMP:  50; 6HR PCP:  0.08;

RUSSELL        RAIN      51  48  89 S9        30.20R
6HR MIN TEMP:  48; 6HR MAX TEMP:  51; 6HR PCP:  0.02;

$$

KSZ061>065-074>080-084>089-221300-
SOUTHWEST KANSAS

CITY           SKY/WX    TMP DP  RH WIND       PRES   REMARKS
DODGE CITY     LGT RAIN  49  47  93 SE20      30.15R
6HR MIN TEMP:  49; 6HR MAX TEMP:  53; 6HR PCP:  1.09;

ELKHART          N/A     49  44  83 S13         N/A
GARDEN CITY    CLOUDY    48  48 100 S10       30.14R
6HR MIN TEMP:  48; 6HR MAX TEMP:  51; 6HR PCP:  0.48;

GREAT BEND     CLOUDY    50  45  81 S13       30.24R
LIBERAL        CLOUDY    52  46  82 SE14      30.15R
$$

KSZ066>073-081>083-090>101-221300-
SOUTHEAST KANSAS

CITY           SKY/WX    TMP DP  RH WIND       PRES   REMARKS
CHANUTE        CLOUDY    49  47  93 SE3       30.24R
6HR MIN TEMP:  44; 6HR MAX TEMP:  50;

COFFEYVILLE    CLOUDY    51  49  92 CALM      30.24R
6HR MIN TEMP:  46; 6HR MAX TEMP:  51;

HUTCHINSON     LGT RAIN  53  48  83 S6        30.26R
6HR MIN TEMP:  48; 6HR MAX TEMP:  53; 6HR PCP: TRACE;

NEWTON         CLOUDY    50  43  76 S7        30.28R
PARSONS        CLOUDY    51  49  92 CALM      30.25R
6HR MIN TEMP:  47; 6HR MAX TEMP:  51;

WICHITA INTL   CLOUDY    52  48  86 SW6       30.27R
6HR MIN TEMP:  51; 6HR MAX TEMP:  54; 6HR PCP: TRACE;

WICHITA JABRA  CLOUDY    51  48  89 S5        30.26R
6HR MIN TEMP:  47; 6HR MAX TEMP:  51;

WINFIELD       CLOUDY    51  49  92 CALM      30.27R
6HR MIN TEMP:  47; 6HR MAX TEMP:  52;

$$

KSZ007>012-019>026-033>040-048>060-102>105-221300-
NORTHEAST KANSAS

CITY           SKY/WX    TMP DP  RH WIND       PRES   REMARKS
CONCORDIA      CLOUDY    49  45  86 CALM      30.21R
6HR MIN TEMP:  45; 6HR MAX TEMP:  51;

EMPORIA        CLOUDY    48  47  96 CALM      30.23R
6HR MIN TEMP:  44; 6HR MAX TEMP:  50;

LAWRENCE       PTCLDY    47  45  93 CALM      30.22S
6HR MIN TEMP:  44; 6HR MAX TEMP:  49;

MANHATTAN      CLOUDY    49  48  97 CALM      30.22R
6HR MIN TEMP:  45; 6HR MAX TEMP:  49;

OLATHE IND     PTCLDY    50  47  89 CALM      30.23S
6HR MIN TEMP:  46; 6HR MAX TEMP:  53;

OLATHE EXE     PTCLDY    50  47  89 CALM      30.22S
6HR MIN TEMP:  45; 6HR MAX TEMP:  54;

SALINA         CLOUDY    50  47  89 S5        30.24R
6HR MIN TEMP:  50; 6HR MAX TEMP:  53;

TOPEKA BILLARD CLOUDY    49  47  93 SE3       30.21F
6HR MIN TEMP:  46; 6HR MAX TEMP:  52;

TOPEKA FORBES  CLOUDY    49  45  86 CALM      30.20F
6HR MIN TEMP:  46; 6HR MAX TEMP:  53;

$$


USA.gov is the U.S. government's official web portal to all federal, state and local government web resources and services.